GFSSW_500_temp_057.txt.gz
Temp
-13 -13 -13 -13 -12 -12 -12 -12 -12 -12 -12 -12 -11 -11 -11 -10 -10 -10 -10 -10 -10 -10 -10 -10 -10 -10 -10 -10 -10 -10 -10 -10 -10 -10 -10 -10 -10 -10 -10 -10 -10 -10 -10 -10 -10
-13 -13 -13 -13 -13 -12 -12 -12 -12 -12 -12 -12 -11 -11 -11 -10 -10 -10 -10 -10 -10 -10 -10 -10 -10 -10 -10 -10 -10 -10 -10 -10 -10 -10 -10 -10 -10 -10 -10 -10 -10 -10 -10 -10 -10
-13 -13 -13 -13 -13 -12 -12 -12 -12 -12 -12 -12 -11 -11 -11 -11 -11 -11 -10 -10 -10 -10 -10 -10 -10 -10 -10 -10 -10 -10 -10 -10 -10 -10 -10 -10 -11 -10 -11 -10 -10 -10 -10 -10 -10
-14 -13 -13 -13 -13 -13 -12 -12 -12 -12 -12 -11 -12 -11 -11 -11 -11 -11 -11 -11 -11 -10 -10 -10 -10 -10 -10 -10 -10 -10 -10 -10 -10 -10 -10 -11 -11 -11 -11 -10 -10 -10 -10 -10 -10
-14 -13 -13 -13 -13 -13 -13 -12 -12 -12 -12 -12 -12 -12 -12 -11 -11 -11 -11 -11 -11 -10 -11 -11 -11 -11 -11 -11 -11 -10 -10 -10 -10 -10 -10 -11 -11 -11 -10 -10 -10 -10 -10 -10 -10
-14 -14 -14 -13 -13 -13 -13 -13 -12 -12 -12 -12 -12 -12 -12 -11 -11 -11 -11 -11 -11 -11 -11 -11 -11 -11 -11 -11 -11 -11 -11 -11 -10 -11 -10 -10 -11 -11 -10 -10 -10 -10 -10 -10 -10
-15 -14 -14 -13 -13 -13 -13 -13 -13 -12 -12 -12 -12 -12 -12 -11 -11 -11 -11 -11 -11 -11 -11 -11 -11 -11 -11 -11 -11 -11 -11 -11 -11 -11 -10 -10 -10 -11 -10 -10 -10 -10 -10 -10 -10
-16 -15 -14 -14 -13 -13 -13 -13 -13 -13 -12 -12 -12 -12 -12 -12 -12 -11 -11 -11 -11 -11 -11 -11 -11 -11 -11 -11 -11 -11 -11 -11 -11 -11 -10 -10 -10 -11 -11 -10 -10 -10 -10 -10 -10
-16 -16 -15 -14 -14 -13 -13 -13 -13 -13 -13 -13 -12 -12 -12 -12 -12 -12 -12 -12 -12 -11 -11 -11 -11 -11 -11 -12 -11 -11 -11 -11 -11 -11 -11 -11 -10 -11 -11 -10 -10 -10 -10 -10 -10
-16 -16 -16 -15 -15 -14 -13 -13 -13 -13 -13 -13 -12 -12 -12 -12 -12 -12 -12 -12 -12 -12 -12 -11 -11 -11 -11 -11 -12 -11 -11 -11 -11 -11 -11 -11 -10 -11 -10 -10 -10 -10 -10 -10 -10
-16 -16 -15 -16 -15 -15 -15 -14 -14 -13 -13 -13 -12 -12 -12 -12 -12 -12 -12 -12 -12 -12 -12 -11 -12 -11 -12 -12 -12 -12 -12 -11 -11 -11 -11 -11 -11 -11 -11 -10 -11 -10 -10 -10 -10
-17 -16 -16 -16 -15 -15 -15 -15 -15 -14 -14 -13 -13 -12 -13 -13 -12 -12 -12 -12 -12 -12 -12 -12 -11 -12 -12 -12 -12 -11 -11 -11 -11 -11 -11 -11 -11 -11 -11 -10 -10 -11 -10 -10 -10
-16 -16 -16 -16 -16 -16 -16 -16 -15 -15 -15 -14 -14 -13 -13 -13 -13 -12 -12 -12 -12 -12 -12 -12 -12 -12 -12 -12 -12 -12 -12 -12 -11 -11 -11 -11 -10 -11 -11 -11 -11 -11 -11 -11 -11
-17 -17 -17 -16 -16 -16 -16 -16 -16 -16 -15 -15 -15 -14 -13 -13 -13 -13 -12 -12 -12 -12 -12 -12 -11 -12 -12 -12 -12 -12 -12 -12 -11 -11 -11 -11 -10 -10 -11 -11 -11 -11 -11 -11 -11
-17 -17 -17 -16 -17 -17 -17 -17 -16 -17 -17 -16 -15 -14 -14 -14 -13 -13 -13 -13 -13 -13 -13 -12 -12 -13 -13 -13 -13 -12 -12 -12 -12 -11 -11 -11 -11 -10 -11 -10 -11 -11 -11 -11 -11
-17 -17 -18 -17 -17 -17 -17 -17 -17 -18 -17 -16 -15 -15 -14 -14 -14 -14 -14 -14 -14 -14 -14 -13 -13 -13 -13 -13 -13 -12 -12 -13 -12 -12 -11 -11 -11 -10 -10 -10 -11 -11 -11 -11 -11
-18 -17 -17 -18 -18 -18 -18 -18 -18 -17 -16 -16 -16 -16 -16 -15 -15 -15 -15 -15 -14 -14 -13 -14 -13 -13 -13 -13 -13 -13 -13 -13 -13 -12 -11 -11 -11 -9 -10 -10 -11 -11 -11 -11 -11
-18 -18 -18 -18 -18 -18 -18 -18 -18 -17 -17 -16 -16 -17 -17 -16 -16 -16 -15 -15 -15 -14 -14 -14 -14 -13 -14 -13 -14 -14 -14 -14 -14 -13 -12 -11 -10 -9 -10 -10 -10 -11 -11 -11 -11
-18 -18 -18 -18 -18 -18 -18 -18 -18 -16 -17 -16 -17 -17 -16 -16 -16 -17 -16 -16 -15 -15 -15 -16 -15 -14 -14 -14 -15 -14 -14 -14 -15 -14 -13 -11 -10 -10 -10 -10 -10 -11 -11 -11 -11
-20 -19 -19 -18 -19 -19 -18 -17 -17 -17 -17 -16 -16 -17 -17 -17 -17 -17 -17 -16 -16 -16 -17 -16 -16 -15 -15 -15 -15 -15 -14 -14 -14 -14 -14 -11 -10 -10 -10 -10 -10 -11 -11 -11 -11
-22 -21 -20 -20 -19 -19 -18 -17 -17 -18 -17 -17 -17 -17 -17 -17 -18 -17 -17 -16 -16 -16 -17 -17 -16 -15 -15 -14 -15 -15 -15 -15 -15 -14 -14 -12 -11 -11 -11 -10 -11 -11 -11 -11 -12
-23 -23 -22 -21 -21 -19 -18 -17 -18 -17 -18 -18 -18 -18 -18 -18 -17 -17 -17 -17 -17 -17 -17 -17 -16 -16 -15 -15 -16 -15 -15 -15 -15 -14 -15 -15 -11 -11 -11 -11 -11 -12 -12 -12 -12
-24 -23 -23 -23 -22 -20 -19 -19 -19 -18 -19 -18 -18 -18 -18 -18 -18 -18 -17 -17 -17 -17 -17 -17 -16 -16 -16 -15 -15 -15 -15 -16 -15 -16 -15 -15 -12 -12 -12 -12 -12 -12 -12 -12 -13
-24 -24 -24 -23 -23 -22 -21 -21 -20 -19 -19 -19 -19 -18 -18 -18 -19 -18 -18 -17 -18 -18 -18 -17 -17 -17 -16 -17 -17 -16 -16 -16 -17 -17 -15 -16 -13 -12 -12 -13 -13 -13 -13 -13 -13
-23 -23 -23 -23 -23 -23 -23 -22 -22 -21 -21 -21 -20 -19 -19 -20 -19 -18 -18 -18 -18 -18 -18 -19 -18 -18 -16 -16 -17 -17 -17 -17 -17 -16 -16 -14 -16 -12 -13 -14 -14 -14 -14 -13 -14
-24 -23 -23 -23 -23 -23 -23 -23 -23 -22 -22 -22 -21 -21 -21 -21 -20 -20 -20 -18 -18 -18 -18 -18 -18 -18 -17 -17 -18 -18 -18 -17 -17 -16 -17 -15 -15 -14 -14 -15 -15 -15 -14 -14 -14
-23 -23 -24 -23 -23 -23 -23 -23 -23 -23 -23 -23 -22 -22 -22 -22 -21 -21 -20 -20 -20 -20 -20 -19 -19 -19 -18 -18 -19 -19 -16 -17 -17 -17 -17 -17 -15 -16 -16 -16 -16 -16 -16 -15 -15

GFSSW_500_temp_060.txt.gz
Temp
-14 -13 -13 -13 -13 -13 -13 -13 -12 -12 -12 -12 -12 -11 -11 -10 -10 -10 -9 -10 -10 -10 -9 -10 -10 -10 -10 -10 -10 -10 -10 -10 -10 -10 -10 -10 -10 -10 -10 -10 -10 -10 -10 -10 -10
-14 -14 -13 -13 -13 -14 -13 -13 -12 -12 -12 -12 -12 -12 -11 -11 -10 -10 -10 -10 -10 -10 -10 -10 -10 -10 -10 -10 -10 -10 -10 -10 -10 -10 -10 -10 -10 -10 -10 -10 -10 -10 -10 -10 -10
-14 -14 -14 -13 -13 -14 -13 -13 -13 -12 -12 -12 -12 -12 -12 -11 -11 -10 -10 -10 -10 -10 -10 -10 -10 -10 -10 -10 -10 -10 -10 -10 -10 -10 -10 -10 -10 -10 -10 -10 -10 -10 -10 -10 -10
-14 -14 -14 -13 -13 -13 -13 -13 -13 -12 -12 -12 -12 -12 -12 -11 -11 -11 -11 -11 -10 -10 -10 -10 -10 -10 -10 -10 -10 -10 -10 -10 -10 -10 -10 -10 -10 -10 -10 -10 -10 -10 -10 -10 -10
-15 -14 -14 -14 -13 -13 -13 -14 -13 -13 -13 -12 -12 -12 -12 -11 -12 -11 -11 -11 -11 -11 -10 -10 -10 -10 -10 -10 -10 -10 -10 -10 -10 -10 -10 -10 -10 -10 -10 -10 -10 -10 -10 -10 -10
-15 -15 -14 -14 -13 -13 -13 -14 -13 -15 -13 -13 -12 -12 -12 -12 -12 -11 -11 -11 -11 -11 -11 -10 -10 -11 -10 -10 -10 -10 -11 -11 -11 -10 -10 -10 -10 -10 -10 -10 -10 -10 -10 -10 -10
-15 -15 -14 -14 -14 -14 -13 -13 -13 -13 -13 -13 -13 -12 -12 -12 -12 -12 -11 -11 -11 -11 -11 -11 -11 -11 -11 -11 -11 -11 -11 -11 -11 -11 -10 -10 -10 -11 -10 -10 -10 -10 -10 -10 -10
-16 -15 -15 -14 -14 -14 -13 -13 -13 -13 -13 -13 -12 -12 -12 -12 -12 -12 -12 -12 -11 -11 -11 -11 -11 -11 -11 -11 -11 -11 -11 -11 -11 -11 -11 -11 -10 -10 -10 -10 -10 -10 -10 -10 -10
-16 -16 -15 -15 -14 -14 -14 -13 -13 -13 -13 -13 -13 -12 -12 -12 -12 -12 -12 -12 -11 -12 -11 -11 -11 -11 -11 -11 -11 -11 -11 -11 -11 -11 -11 -11 -10 -11 -10 -10 -10 -10 -10 -10 -10
-16 -16 -16 -15 -15 -14 -14 -14 -13 -13 -13 -13 -13 -13 -12 -12 -12 -12 -12 -12 -12 -12 -11 -11 -11 -11 -11 -11 -11 -11 -11 -11 -11 -11 -11 -11 -10 -11 -10 -10 -10 -10 -10 -10 -10
-17 -16 -16 -16 -16 -15 -15 -14 -14 -13 -13 -13 -13 -13 -12 -12 -12 -12 -12 -12 -12 -12 -12 -12 -12 -11 -12 -12 -12 -11 -11 -11 -11 -11 -11 -11 -10 -10 -11 -10 -11 -11 -10 -10 -11
-17 -17 -16 -17 -16 -16 -15 -15 -15 -14 -14 -13 -13 -13 -13 -13 -13 -12 -12 -12 -12 -12 -12 -12 -11 -12 -12 -12 -12 -12 -12 -11 -12 -11 -11 -11 -10 -10 -11 -11 -10 -11 -11 -11 -11
-17 -17 -17 -16 -16 -16 -16 -15 -15 -15 -15 -14 -13 -13 -13 -13 -13 -12 -12 -12 -12 -12 -12 -12 -12 -12 -12 -12 -12 -12 -12 -12 -12 -11 -11 -11 -10 -11 -10 -11 -11 -11 -11 -11 -11
-17 -17 -17 -17 -16 -16 -16 -16 -15 -15 -15 -14 -14 -14 -13 -13 -13 -13 -12 -12 -12 -12 -12 -12 -11 -12 -12 -12 -12 -12 -12 -12 -12 -12 -11 -11 -10 -10 -11 -10 -11 -11 -11 -11 -11
-17 -17 -17 -16 -17 -16 -17 -16 -16 -16 -16 -16 -14 -14 -14 -14 -13 -13 -13 -13 -12 -12 -12 -12 -12 -12 -12 -12 -12 -12 -12 -12 -12 -12 -11 -11 -11 -10 -10 -11 -11 -11 -11 -11 -11
-17 -17 -17 -17 -17 -17 -17 -16 -17 -17 -16 -15 -14 -14 -14 -14 -14 -14 -14 -13 -13 -13 -13 -12 -12 -12 -12 -13 -13 -12 -13 -13 -13 -12 -11 -11 -11 -9 -10 -10 -10 -11 -11 -11 -11
-18 -17 -17 -17 -17 -17 -17 -17 -17 -17 -16 -16 -15 -15 -15 -15 -14 -14 -14 -14 -14 -13 -13 -13 -12 -13 -13 -13 -13 -13 -13 -13 -13 -12 -11 -11 -11 -10 -10 -10 -10 -11 -11 -11 -11
-18 -17 -17 -17 -18 -18 -17 -17 -17 -17 -17 -15 -16 -16 -16 -16 -15 -15 -15 -15 -14 -14 -14 -14 -13 -13 -13 -13 -14 -14 -14 -13 -13 -13 -11 -11 -10 -9 -10 -10 -11 -11 -11 -11 -11
-18 -18 -17 -17 -18 -18 -18 -18 -17 -17 -17 -17 -17 -17 -17 -16 -16 -16 -16 -16 -16 -16 -15 -15 -15 -14 -14 -14 -14 -13 -13 -14 -15 -14 -12 -11 -10 -10 -10 -11 -11 -11 -10 -11 -11
-19 -19 -19 -18 -18 -18 -18 -18 -18 -18 -17 -17 -17 -17 -17 -17 -17 -17 -17 -16 -16 -16 -16 -16 -16 -15 -14 -15 -15 -14 -14 -14 -15 -14 -13 -11 -10 -10 -10 -11 -11 -11 -11 -11 -11
-20 -19 -19 -19 -20 -19 -18 -18 -18 -18 -18 -17 -17 -18 -17 -18 -17 -17 -17 -17 -17 -16 -16 -17 -17 -15 -15 -14 -15 -16 -15 -15 -15 -15 -14 -12 -11 -10 -10 -11 -11 -11 -11 -11 -12
-22 -21 -21 -20 -20 -19 -18 -17 -18 -18 -18 -18 -18 -18 -18 -18 -18 -17 -17 -17 -17 -17 -17 -17 -17 -16 -16 -16 -16 -15 -15 -16 -15 -15 -15 -15 -11 -11 -11 -12 -12 -12 -12 -12 -12
-23 -23 -23 -22 -21 -19 -19 -19 -19 -18 -18 -18 -18 -18 -18 -18 -18 -18 -18 -18 -18 -18 -17 -17 -17 -17 -17 -16 -16 -16 -16 -16 -16 -16 -15 -15 -12 -12 -12 -13 -13 -13 -13 -13 -13
-24 -23 -23 -23 -22 -21 -20 -20 -20 -19 -19 -19 -19 -19 -18 -18 -18 -18 -18 -18 -18 -18 -17 -17 -17 -17 -17 -17 -17 -17 -17 -17 -17 -17 -15 -16 -13 -13 -14 -14 -14 -14 -14 -13 -13
-24 -24 -24 -23 -23 -22 -22 -21 -21 -20 -20 -20 -19 -18 -19 -19 -19 -19 -19 -19 -18 -18 -17 -18 -17 -18 -17 -17 -18 -17 -18 -17 -17 -16 -16 -14 -15 -12 -14 -14 -15 -14 -14 -14 -14
-23 -23 -23 -23 -23 -23 -23 -23 -22 -22 -21 -21 -20 -21 -21 -20 -20 -20 -20 -20 -19 -19 -18 -18 -18 -18 -17 -18 -18 -18 -18 -17 -17 -16 -17 -16 -16 -14 -15 -16 -15 -15 -16 -15 -15
-23 -23 -23 -23 -23 -24 -23 -23 -23 -23 -23 -22 -22 -22 -21 -21 -21 -20 -20 -20 -20 -20 -21 -20 -19 -19 -18 -19 -19 -19 -17 -18 -18 -18 -18 -18 -16 -16 -16 -15 -15 -16 -17 -15 -15

GFSSW_500_temp_063.txt.gz
Temp
-14 -14 -14 -14 -15 -14 -14 -14 -14 -14 -13 -12 -12 -12 -11 -11 -10 -10 -10 -10 -10 -9 -10 -9 -9 -9 -10 -10 -9 -10 -9 -9 -9 -9 -9 -10 -10 -10 -10 -10 -10 -10 -10 -10 -10
-15 -14 -14 -15 -14 -14 -13 -13 -13 -13 -13 -14 -12 -12 -11 -11 -11 -10 -10 -10 -10 -10 -10 -10 -9 -9 -10 -10 -9 -10 -10 -9 -10 -9 -9 -10 -10 -10 -10 -10 -10 -10 -11 -10 -10
-15 -14 -14 -14 -14 -14 -13 -13 -14 -13 -13 -13 -12 -12 -12 -11 -11 -11 -10 -10 -10 -10 -10 -10 -10 -10 -10 -10 -10 -10 -10 -10 -10 -10 -10 -10 -10 -10 -10 -10 -10 -10 -10 -10 -10
-15 -15 -14 -14 -14 -14 -14 -14 -15 -13 -13 -13 -12 -12 -12 -12 -11 -11 -11 -10 -10 -10 -10 -10 -10 -10 -10 -10 -10 -10 -10 -10 -10 -10 -10 -10 -10 -10 -10 -10 -10 -10 -10 -10 -10
-15 -15 -14 -14 -14 -14 -15 -14 -14 -13 -13 -13 -12 -12 -12 -12 -12 -12 -11 -11 -11 -10 -10 -10 -10 -10 -10 -10 -10 -10 -10 -10 -10 -10 -10 -10 -10 -10 -10 -10 -10 -10 -10 -10 -10
-15 -15 -15 -14 -14 -14 -14 -15 -14 -13 -13 -13 -13 -13 -12 -12 -12 -12 -11 -11 -11 -11 -11 -10 -10 -10 -10 -10 -10 -10 -10 -10 -10 -10 -10 -10 -10 -10 -10 -10 -10 -10 -10 -10 -10
-16 -15 -15 -15 -14 -14 -14 -15 -14 -13 -13 -13 -13 -13 -12 -12 -12 -12 -12 -11 -11 -11 -11 -11 -10 -10 -11 -11 -10 -10 -10 -10 -10 -10 -10 -10 -10 -11 -10 -10 -10 -10 -10 -10 -10
-16 -16 -15 -15 -15 -14 -14 -14 -14 -13 -13 -13 -13 -13 -13 -12 -12 -12 -12 -12 -11 -11 -11 -11 -11 -11 -11 -11 -11 -11 -10 -11 -11 -10 -10 -10 -11 -10 -11 -10 -10 -10 -10 -10 -10
-17 -16 -16 -15 -15 -15 -14 -14 -14 -14 -14 -14 -14 -13 -13 -12 -12 -12 -12 -12 -12 -11 -11 -11 -11 -11 -11 -11 -11 -11 -11 -11 -11 -10 -10 -10 -10 -11 -11 -10 -11 -10 -10 -10 -10
-17 -17 -16 -16 -15 -15 -14 -14 -14 -14 -14 -14 -14 -13 -12 -12 -13 -12 -12 -12 -12 -12 -12 -11 -11 -11 -11 -11 -11 -11 -11 -11 -11 -10 -11 -10 -10 -11 -11 -10 -10 -11 -11 -11 -11
-18 -17 -17 -16 -16 -15 -15 -14 -14 -14 -14 -13 -13 -13 -13 -13 -12 -12 -12 -12 -12 -12 -12 -12 -11 -11 -12 -12 -11 -11 -11 -11 -11 -11 -11 -11 -10 -10 -11 -10 -11 -11 -11 -11 -11
-18 -18 -17 -17 -16 -16 -15 -15 -15 -14 -14 -14 -13 -13 -13 -13 -13 -13 -12 -12 -12 -12 -12 -12 -11 -12 -12 -12 -11 -11 -11 -11 -11 -11 -10 -11 -10 -10 -11 -11 -11 -11 -11 -11 -11
-17 -17 -17 -16 -16 -16 -16 -15 -15 -15 -15 -14 -14 -13 -13 -13 -13 -13 -13 -13 -12 -12 -12 -12 -12 -12 -12 -12 -11 -11 -11 -11 -11 -11 -10 -10 -10 -10 -11 -11 -11 -11 -11 -11 -11
-17 -17 -17 -16 -16 -16 -16 -16 -16 -16 -15 -15 -14 -14 -14 -13 -13 -13 -13 -13 -12 -12 -12 -12 -12 -12 -11 -11 -12 -11 -12 -12 -11 -11 -11 -10 -9 -10 -11 -10 -11 -11 -11 -11 -11
-18 -17 -17 -17 -17 -17 -17 -17 -17 -17 -15 -15 -15 -14 -14 -14 -13 -13 -13 -13 -13 -13 -12 -12 -12 -12 -12 -12 -12 -11 -12 -12 -12 -11 -10 -10 -10 -9 -10 -11 -11 -11 -11 -11 -11
-18 -17 -17 -17 -18 -17 -17 -17 -16 -17 -15 -15 -14 -14 -14 -13 -14 -14 -13 -13 -13 -13 -12 -12 -12 -12 -12 -12 -12 -12 -12 -12 -12 -11 -10 -10 -11 -9 -10 -11 -11 -11 -11 -11 -11
-18 -18 -17 -17 -17 -17 -17 -17 -17 -17 -16 -15 -15 -15 -15 -14 -14 -14 -14 -14 -14 -13 -13 -13 -13 -12 -12 -12 -12 -12 -12 -12 -12 -11 -10 -11 -11 -10 -10 -10 -11 -11 -11 -11 -11
-18 -18 -18 -18 -17 -17 -17 -18 -18 -16 -17 -16 -16 -16 -15 -15 -15 -14 -14 -14 -14 -14 -14 -13 -13 -13 -13 -13 -13 -13 -13 -13 -12 -11 -11 -11 -10 -10 -10 -11 -11 -11 -11 -11 -11
-19 -18 -18 -18 -18 -18 -18 -18 -17 -17 -17 -17 -17 -17 -16 -16 -16 -15 -15 -15 -15 -14 -14 -14 -14 -14 -13 -13 -14 -13 -12 -13 -13 -12 -11 -11 -10 -10 -10 -11 -11 -11 -11 -11 -11
-19 -20 -19 -18 -18 -18 -18 -18 -18 -18 -17 -17 -17 -17 -17 -17 -17 -17 -16 -15 -15 -15 -16 -15 -14 -14 -14 -14 -14 -13 -14 -14 -14 -13 -12 -11 -10 -10 -11 -12 -12 -12 -11 -11 -11
-19 -19 -19 -18 -18 -18 -18 -18 -19 -18 -18 -17 -17 -17 -17 -17 -17 -18 -18 -17 -16 -16 -17 -16 -16 -15 -15 -14 -14 -15 -15 -15 -15 -15 -13 -12 -11 -11 -11 -11 -12 -12 -13 -13 -12
-20 -20 -19 -18 -19 -18 -18 -18 -18 -19 -19 -18 -17 -18 -17 -17 -17 -17 -18 -18 -18 -18 -18 -18 -17 -16 -16 -15 -15 -15 -15 -16 -16 -15 -15 -14 -11 -12 -12 -12 -13 -12 -12 -12 -13
-22 -21 -20 -20 -19 -18 -18 -18 -18 -18 -19 -19 -18 -18 -18 -18 -18 -17 -18 -18 -18 -18 -18 -18 -17 -17 -17 -16 -16 -16 -16 -16 -16 -16 -15 -15 -11 -13 -13 -13 -13 -13 -14 -15 -15
-23 -23 -22 -21 -19 -20 -20 -19 -19 -19 -18 -19 -19 -19 -19 -18 -18 -18 -18 -18 -18 -18 -17 -17 -17 -17 -17 -17 -17 -17 -17 -17 -17 -16 -15 -15 -13 -13 -14 -14 -14 -15 -15 -15 -15
-24 -23 -23 -22 -21 -21 -21 -20 -19 -19 -20 -20 -20 -19 -20 -19 -19 -19 -19 -18 -18 -18 -18 -18 -17 -17 -17 -18 -17 -17 -18 -18 -17 -17 -16 -15 -15 -14 -15 -15 -15 -16 -16 -16 -15
-24 -24 -24 -23 -23 -23 -22 -21 -21 -21 -21 -20 -20 -20 -21 -21 -20 -20 -19 -19 -19 -19 -18 -18 -18 -18 -18 -18 -18 -18 -18 -17 -17 -17 -17 -16 -16 -16 -16 -15 -16 -16 -16 -16 -16
-24 -24 -24 -24 -24 -23 -23 -23 -23 -23 -23 -22 -22 -22 -21 -21 -21 -21 -21 -21 -21 -20 -19 -19 -19 -19 -18 -18 -18 -18 -16 -18 -18 -18 -19 -18 -16 -16 -16 -16 -17 -16 -16 -16 -16

GFSSW_500_temp_069.txt.gz
Temp
-16 -15 -15 -15 -15 -15 -15 -16 -16 -14 -14 -13 -12 -11 -11 -11 -11 -11 -11 -10 -10 -10 -10 -10 -10 -10 -10 -10 -10 -10 -10 -10 -10 -10 -9 -9 -9 -10 -10 -10 -10 -10 -10 -10 -11
-16 -15 -15 -15 -15 -15 -16 -16 -15 -15 -14 -13 -12 -12 -12 -11 -11 -11 -10 -10 -10 -10 -10 -10 -10 -10 -10 -10 -9 -10 -10 -10 -10 -10 -10 -10 -10 -10 -10 -10 -10 -10 -10 -10 -10
-16 -16 -15 -15 -15 -15 -16 -15 -15 -15 -14 -14 -13 -12 -12 -11 -11 -11 -10 -10 -10 -10 -10 -10 -10 -10 -10 -10 -10 -10 -10 -10 -10 -10 -10 -10 -10 -10 -10 -10 -10 -10 -10 -10 -10
-16 -16 -15 -15 -15 -15 -16 -15 -14 -14 -15 -14 -13 -12 -12 -12 -11 -11 -11 -11 -10 -10 -10 -10 -10 -10 -10 -10 -10 -9 -10 -10 -10 -10 -10 -10 -10 -10 -10 -10 -10 -10 -10 -10 -10
-16 -16 -15 -15 -15 -15 -16 -16 -15 -15 -14 -14 -13 -13 -13 -12 -12 -12 -11 -11 -11 -10 -10 -10 -10 -10 -10 -10 -10 -10 -10 -10 -10 -10 -10 -10 -10 -10 -10 -10 -10 -10 -9 -10 -10
-16 -16 -16 -15 -15 -15 -16 -15 -15 -15 -14 -14 -13 -13 -13 -12 -12 -12 -12 -11 -11 -11 -11 -11 -10 -10 -10 -10 -10 -10 -10 -10 -10 -10 -10 -10 -10 -10 -10 -10 -10 -10 -10 -9 -10
-17 -16 -16 -16 -16 -16 -16 -16 -15 -15 -16 -15 -14 -14 -13 -13 -13 -12 -12 -12 -11 -11 -11 -11 -11 -10 -10 -10 -10 -10 -10 -10 -10 -10 -10 -10 -10 -10 -10 -10 -10 -10 -10 -10 -9
-17 -16 -16 -16 -15 -16 -16 -15 -15 -16 -16 -15 -14 -14 -13 -13 -13 -13 -12 -12 -12 -12 -11 -11 -11 -11 -10 -10 -10 -10 -10 -10 -10 -10 -10 -10 -10 -10 -10 -10 -10 -10 -10 -10 -10
-18 -17 -16 -16 -16 -16 -16 -15 -16 -16 -15 -16 -15 -14 -13 -13 -13 -13 -12 -12 -12 -12 -12 -11 -11 -11 -10 -11 -10 -10 -10 -10 -10 -10 -10 -10 -10 -10 -10 -10 -10 -10 -10 -10 -10
-18 -18 -17 -16 -16 -16 -16 -16 -16 -15 -15 -15 -15 -15 -14 -13 -13 -13 -13 -13 -12 -12 -12 -11 -11 -11 -11 -11 -10 -10 -11 -11 -11 -10 -10 -10 -10 -11 -10 -10 -10 -10 -10 -11 -10
-18 -18 -18 -17 -17 -16 -16 -16 -15 -16 -16 -15 -15 -15 -14 -14 -13 -13 -13 -13 -12 -12 -12 -12 -11 -11 -11 -11 -11 -11 -11 -11 -10 -11 -11 -10 -10 -11 -11 -10 -11 -11 -11 -11 -11
-18 -18 -18 -17 -17 -16 -16 -16 -16 -16 -16 -15 -15 -15 -15 -14 -14 -13 -13 -12 -12 -12 -12 -12 -11 -12 -12 -11 -11 -11 -11 -11 -11 -11 -11 -11 -11 -11 -11 -11 -11 -11 -11 -11 -11
-18 -18 -18 -17 -17 -17 -16 -16 -16 -16 -16 -16 -15 -15 -15 -15 -14 -14 -14 -13 -13 -13 -12 -12 -12 -12 -12 -11 -11 -11 -11 -11 -11 -11 -11 -11 -11 -11 -11 -11 -11 -11 -11 -11 -11
-18 -18 -18 -17 -17 -17 -17 -17 -16 -16 -17 -16 -15 -15 -15 -14 -15 -14 -13 -13 -13 -13 -13 -12 -12 -12 -12 -11 -11 -11 -11 -11 -11 -11 -11 -11 -10 -11 -11 -11 -11 -11 -11 -11 -11
-18 -18 -18 -18 -18 -17 -17 -17 -17 -17 -16 -16 -16 -15 -15 -15 -15 -14 -14 -14 -14 -13 -13 -12 -12 -12 -12 -12 -12 -11 -11 -11 -11 -11 -11 -11 -10 -10 -11 -11 -11 -11 -11 -11 -11
-18 -18 -18 -18 -18 -18 -18 -18 -18 -18 -16 -16 -15 -15 -15 -15 -15 -15 -14 -14 -14 -14 -13 -13 -13 -13 -12 -12 -12 -12 -12 -12 -11 -11 -11 -11 -11 -10 -11 -11 -12 -12 -11 -11 -11
-18 -18 -18 -18 -18 -18 -19 -18 -18 -17 -16 -16 -15 -15 -15 -15 -15 -15 -15 -15 -14 -14 -13 -13 -13 -13 -13 -13 -12 -12 -12 -12 -12 -11 -11 -11 -11 -10 -11 -10 -11 -11 -12 -11 -11
-19 -18 -18 -18 -18 -18 -18 -19 -18 -16 -16 -15 -15 -15 -15 -15 -15 -15 -15 -15 -15 -14 -14 -13 -13 -13 -13 -13 -13 -13 -13 -13 -12 -12 -11 -11 -10 -10 -10 -11 -11 -11 -11 -11 -11
-19 -19 -18 -19 -19 -18 -18 -18 -17 -16 -16 -16 -16 -15 -15 -15 -15 -15 -14 -14 -14 -14 -13 -13 -13 -13 -13 -13 -13 -13 -13 -13 -12 -12 -11 -11 -11 -11 -11 -11 -11 -11 -11 -11 -11
-19 -19 -19 -19 -18 -18 -18 -18 -18 -17 -16 -16 -16 -16 -15 -15 -15 -15 -15 -14 -14 -14 -14 -14 -14 -14 -14 -14 -13 -13 -13 -13 -13 -12 -12 -11 -11 -11 -12 -11 -11 -11 -11 -11 -11
-19 -19 -19 -19 -19 -19 -18 -18 -18 -18 -18 -17 -17 -16 -16 -16 -16 -15 -15 -15 -15 -15 -15 -14 -14 -14 -14 -14 -14 -13 -13 -13 -13 -13 -12 -12 -12 -12 -12 -12 -11 -12 -12 -12 -12
-19 -19 -19 -19 -19 -19 -18 -18 -18 -18 -18 -17 -17 -17 -17 -17 -17 -16 -15 -15 -15 -15 -15 -15 -15 -14 -14 -14 -14 -14 -14 -14 -14 -13 -13 -13 -12 -12 -12 -12 -12 -12 -12 -13 -13
-19 -19 -19 -19 -19 -19 -18 -18 -18 -18 -18 -18 -18 -18 -17 -17 -17 -17 -16 -16 -15 -16 -16 -16 -15 -15 -15 -14 -14 -14 -14 -14 -14 -15 -13 -14 -12 -13 -13 -13 -13 -13 -13 -13 -13
-21 -19 -19 -19 -19 -19 -19 -19 -19 -19 -18 -18 -18 -18 -18 -18 -18 -18 -18 -17 -17 -17 -17 -17 -16 -16 -15 -15 -15 -15 -15 -16 -16 -16 -14 -14 -14 -14 -14 -15 -15 -15 -15 -15 -15
-22 -21 -21 -19 -19 -19 -19 -19 -19 -19 -19 -18 -19 -18 -18 -18 -18 -18 -18 -18 -18 -18 -18 -17 -17 -17 -16 -16 -16 -16 -16 -16 -16 -15 -15 -14 -15 -15 -15 -16 -16 -16 -15 -15 -15
-23 -22 -22 -20 -20 -19 -19 -19 -19 -19 -19 -19 -19 -18 -18 -18 -18 -18 -18 -18 -18 -18 -18 -18 -18 -17 -17 -17 -17 -17 -17 -17 -16 -16 -16 -15 -15 -16 -17 -17 -16 -16 -16 -16 -16
-23 -23 -22 -22 -22 -21 -21 -20 -20 -20 -19 -19 -19 -19 -18 -18 -19 -19 -18 -19 -18 -18 -18 -18 -18 -18 -18 -18 -18 -18 -16 -17 -17 -17 -17 -17 -16 -17 -17 -17 -16 -16 -16 -17 -17

GFSSW_500_temp_072.txt.gz
Temp
-17 -16 -15 -15 -15 -15 -15 -14 -13 -12 -12 -13 -15 -14 -12 -11 -11 -10 -11 -10 -10 -10 -10 -9 -10 -9 -10 -10 -10 -10 -10 -10 -10 -10 -10 -10 -10 -10 -10 -10 -10 -10 -10 -10 -10
-18 -16 -16 -15 -15 -16 -16 -16 -15 -15 -13 -16 -14 -14 -12 -11 -11 -11 -10 -10 -10 -10 -10 -10 -10 -10 -10 -10 -10 -10 -10 -10 -10 -10 -10 -10 -10 -10 -10 -10 -10 -10 -10 -10 -10
-18 -16 -16 -16 -16 -16 -15 -16 -16 -17 -16 -15 -14 -13 -12 -12 -11 -11 -11 -11 -11 -10 -10 -10 -10 -10 -10 -10 -10 -10 -10 -10 -10 -10 -10 -10 -10 -10 -10 -10 -10 -10 -10 -10 -10
-17 -16 -16 -16 -15 -16 -16 -16 -16 -16 -15 -16 -14 -13 -12 -12 -12 -11 -11 -11 -11 -11 -11 -10 -10 -10 -10 -10 -10 -10 -10 -10 -10 -10 -10 -10 -10 -10 -10 -10 -10 -10 -10 -10 -10
-18 -17 -16 -16 -16 -16 -16 -16 -16 -16 -16 -15 -14 -13 -13 -12 -12 -11 -11 -11 -11 -11 -11 -11 -10 -10 -10 -10 -10 -10 -10 -10 -10 -10 -10 -10 -10 -10 -10 -10 -10 -10 -10 -10 -10
-18 -17 -16 -16 -16 -16 -16 -16 -16 -15 -16 -15 -14 -13 -13 -13 -12 -12 -12 -12 -11 -11 -11 -11 -11 -11 -10 -11 -10 -10 -10 -11 -10 -10 -10 -10 -10 -10 -10 -10 -10 -10 -10 -10 -10
-18 -17 -17 -16 -16 -16 -16 -17 -17 -16 -16 -15 -15 -14 -13 -13 -13 -12 -12 -12 -11 -12 -11 -11 -11 -11 -11 -10 -10 -10 -10 -10 -10 -10 -10 -10 -10 -10 -10 -10 -10 -10 -10 -9 -10
-18 -17 -17 -16 -16 -17 -17 -16 -17 -16 -16 -16 -15 -14 -14 -13 -13 -13 -12 -12 -12 -12 -12 -11 -11 -11 -11 -11 -10 -10 -10 -10 -10 -10 -10 -10 -10 -10 -10 -10 -10 -10 -10 -10 -9
-18 -17 -17 -17 -16 -17 -17 -16 -16 -16 -16 -16 -15 -14 -14 -13 -13 -13 -13 -13 -13 -12 -12 -11 -11 -11 -11 -11 -11 -11 -10 -10 -10 -10 -10 -10 -11 -10 -10 -10 -10 -10 -10 -10 -10
-18 -18 -17 -17 -17 -17 -17 -17 -16 -16 -17 -16 -15 -15 -14 -14 -14 -13 -13 -13 -13 -12 -12 -12 -12 -11 -11 -11 -11 -11 -10 -11 -10 -11 -10 -10 -10 -10 -10 -10 -10 -11 -11 -11 -10
-19 -18 -17 -17 -17 -17 -17 -17 -16 -16 -17 -16 -16 -15 -14 -14 -14 -13 -13 -13 -13 -13 -12 -12 -12 -11 -12 -11 -11 -11 -11 -11 -11 -10 -10 -10 -10 -10 -11 -10 -11 -11 -10 -11 -11
-19 -18 -18 -18 -18 -17 -17 -17 -16 -15 -16 -17 -16 -15 -15 -14 -14 -14 -13 -13 -13 -12 -12 -12 -12 -12 -12 -11 -11 -11 -11 -11 -11 -11 -10 -10 -11 -11 -11 -11 -11 -11 -11 -11 -11
-19 -18 -18 -18 -18 -17 -17 -17 -17 -16 -16 -16 -18 -16 -16 -15 -14 -14 -14 -13 -13 -13 -13 -12 -12 -12 -12 -12 -11 -11 -11 -11 -11 -11 -11 -11 -11 -11 -11 -11 -11 -11 -11 -11 -11
-19 -18 -18 -18 -18 -17 -17 -18 -18 -17 -18 -18 -17 -17 -17 -17 -15 -14 -14 -14 -13 -13 -13 -13 -12 -12 -12 -12 -12 -11 -11 -11 -11 -11 -11 -11 -10 -11 -11 -11 -11 -11 -11 -11 -11
-19 -19 -18 -18 -18 -18 -18 -18 -18 -19 -19 -17 -17 -16 -16 -17 -16 -15 -14 -14 -13 -13 -13 -12 -12 -12 -12 -12 -12 -12 -12 -11 -11 -11 -11 -11 -11 -11 -11 -11 -11 -11 -11 -11 -11
-18 -19 -18 -18 -18 -19 -18 -18 -19 -19 -18 -17 -17 -16 -17 -16 -16 -16 -15 -15 -14 -14 -13 -13 -13 -13 -12 -12 -12 -12 -12 -12 -11 -11 -11 -11 -11 -10 -11 -11 -11 -11 -11 -11 -11
-18 -18 -18 -19 -19 -19 -19 -19 -19 -19 -17 -17 -16 -16 -16 -16 -16 -16 -15 -15 -14 -14 -14 -13 -13 -13 -13 -13 -12 -12 -12 -12 -12 -11 -11 -11 -11 -11 -11 -11 -11 -11 -11 -11 -11
-19 -18 -18 -19 -19 -19 -19 -19 -19 -17 -17 -16 -16 -16 -16 -16 -16 -16 -15 -15 -15 -15 -14 -14 -13 -13 -13 -13 -13 -13 -13 -13 -12 -12 -11 -11 -11 -11 -11 -11 -11 -11 -11 -12 -12
-19 -19 -19 -19 -18 -18 -19 -20 -17 -17 -17 -16 -16 -16 -16 -16 -16 -16 -15 -15 -15 -15 -14 -14 -14 -14 -14 -14 -14 -13 -13 -13 -13 -12 -12 -11 -11 -11 -11 -11 -11 -11 -11 -11 -11
-19 -18 -18 -18 -19 -19 -19 -17 -17 -17 -17 -17 -16 -16 -16 -16 -16 -16 -16 -15 -15 -15 -15 -14 -14 -14 -14 -14 -14 -13 -13 -13 -13 -12 -12 -11 -11 -11 -11 -11 -11 -11 -11 -11 -11
-19 -19 -18 -18 -18 -19 -19 -18 -17 -18 -17 -17 -17 -16 -16 -16 -16 -16 -16 -15 -16 -16 -16 -16 -16 -15 -15 -14 -14 -14 -13 -13 -13 -13 -12 -12 -12 -11 -11 -11 -12 -12 -12 -12 -11
-19 -19 -19 -19 -18 -19 -19 -18 -18 -18 -18 -18 -17 -17 -17 -17 -16 -16 -16 -16 -15 -15 -15 -15 -15 -15 -15 -15 -15 -14 -14 -13 -13 -13 -13 -13 -13 -12 -12 -12 -12 -12 -12 -12 -13
-19 -19 -19 -19 -19 -19 -19 -19 -18 -19 -18 -18 -18 -18 -18 -17 -17 -17 -16 -16 -16 -16 -16 -15 -15 -15 -15 -15 -15 -14 -14 -14 -14 -14 -13 -13 -12 -12 -13 -12 -13 -13 -13 -13 -13
-20 -19 -19 -19 -19 -19 -19 -19 -19 -18 -18 -18 -18 -18 -18 -18 -18 -17 -17 -16 -16 -16 -16 -16 -16 -15 -15 -14 -15 -14 -14 -14 -14 -14 -13 -13 -13 -13 -13 -14 -14 -14 -14 -14 -14
-21 -20 -19 -19 -19 -19 -19 -19 -19 -19 -19 -18 -18 -18 -18 -18 -18 -18 -18 -18 -17 -17 -17 -17 -16 -15 -15 -15 -15 -15 -15 -15 -15 -15 -15 -13 -14 -14 -15 -15 -15 -14 -14 -15 -15
-23 -21 -20 -20 -20 -19 -19 -19 -19 -19 -19 -18 -18 -18 -18 -18 -18 -18 -18 -18 -18 -18 -18 -17 -17 -17 -16 -16 -16 -15 -16 -16 -15 -15 -15 -14 -14 -15 -16 -16 -15 -15 -15 -15 -16
-24 -23 -22 -21 -20 -19 -19 -19 -19 -19 -19 -19 -19 -19 -19 -19 -18 -18 -18 -18 -18 -18 -18 -18 -18 -17 -17 -17 -17 -17 -15 -16 -16 -16 -16 -15 -15 -16 -17 -17 -17 -17 -16 -16 -16

GFSSW_500_temp_075.txt.gz
Temp
-18 -18 -17 -15 -15 -15 -15 -14 -13 -13 -12 -12 -12 -12 -11 -10 -12 -11 -10 -10 -10 -10 -10 -10 -9 -9 -9 -9 -10 -10 -10 -10 -10 -10 -10 -10 -10 -10 -10 -10 -10 -10 -10 -10 -10
-18 -18 -17 -16 -15 -16 -15 -14 -13 -13 -12 -12 -12 -12 -12 -12 -15 -11 -11 -10 -10 -10 -10 -10 -10 -9 -9 -10 -10 -10 -10 -10 -10 -10 -10 -10 -10 -10 -10 -10 -10 -10 -10 -10 -10
-18 -18 -17 -16 -16 -16 -16 -16 -14 -13 -12 -12 -12 -12 -13 -15 -13 -12 -11 -11 -11 -10 -10 -10 -10 -9 -10 -10 -10 -10 -10 -10 -10 -10 -10 -10 -10 -10 -10 -10 -10 -10 -10 -10 -10
-18 -19 -17 -16 -16 -16 -16 -16 -16 -14 -12 -12 -12 -13 -16 -16 -13 -11 -11 -11 -11 -11 -11 -10 -10 -9 -10 -10 -10 -10 -10 -10 -10 -10 -10 -10 -10 -10 -10 -10 -10 -10 -10 -10 -10
-18 -18 -17 -17 -16 -16 -16 -17 -17 -15 -16 -16 -14 -16 -15 -13 -12 -12 -11 -11 -11 -11 -11 -10 -10 -10 -10 -10 -10 -10 -10 -10 -10 -10 -10 -10 -10 -10 -10 -10 -10 -10 -10 -10 -10
-19 -18 -17 -17 -16 -16 -16 -16 -17 -16 -18 -17 -16 -15 -14 -13 -13 -12 -12 -11 -11 -11 -11 -11 -10 -11 -10 -10 -11 -10 -10 -10 -10 -10 -10 -10 -10 -10 -11 -10 -10 -10 -10 -10 -10
-19 -18 -18 -17 -17 -16 -17 -16 -17 -16 -18 -17 -16 -15 -14 -13 -13 -13 -12 -12 -12 -12 -11 -11 -11 -11 -11 -10 -10 -10 -10 -10 -10 -10 -10 -10 -11 -10 -11 -10 -10 -10 -10 -10 -10
-19 -19 -18 -18 -17 -17 -17 -17 -17 -17 -17 -16 -16 -15 -15 -14 -13 -13 -13 -12 -12 -12 -12 -11 -11 -11 -11 -11 -11 -10 -10 -10 -10 -10 -10 -10 -11 -10 -11 -11 -10 -10 -10 -10 -10
-19 -18 -18 -18 -17 -17 -18 -18 -17 -17 -17 -17 -16 -15 -14 -14 -13 -13 -13 -13 -12 -12 -12 -12 -11 -11 -11 -11 -11 -11 -10 -10 -10 -10 -10 -10 -10 -11 -10 -10 -11 -11 -10 -10 -10
-19 -19 -18 -18 -18 -17 -18 -18 -18 -17 -17 -17 -16 -15 -14 -14 -14 -14 -13 -13 -12 -12 -13 -12 -11 -11 -11 -11 -10 -10 -10 -10 -10 -11 -10 -10 -11 -10 -11 -10 -11 -11 -11 -10 -11
-18 -19 -18 -18 -18 -17 -18 -18 -17 -17 -17 -17 -16 -15 -15 -15 -14 -14 -13 -13 -13 -13 -13 -12 -12 -11 -11 -11 -11 -11 -11 -11 -11 -11 -10 -10 -10 -10 -10 -11 -11 -11 -11 -11 -11
-19 -19 -19 -18 -18 -18 -18 -17 -17 -17 -17 -17 -16 -16 -15 -15 -15 -14 -14 -13 -13 -13 -12 -12 -12 -13 -12 -12 -12 -11 -11 -11 -11 -10 -10 -10 -10 -10 -11 -11 -10 -10 -11 -11 -11
-19 -19 -19 -19 -18 -18 -17 -18 -18 -18 -17 -18 -17 -16 -16 -15 -15 -14 -14 -14 -14 -13 -13 -12 -13 -13 -12 -12 -12 -11 -11 -11 -11 -11 -10 -10 -10 -11 -11 -11 -11 -10 -10 -11 -11
-19 -19 -19 -18 -18 -18 -18 -18 -18 -18 -17 -17 -18 -17 -16 -15 -15 -15 -14 -14 -13 -13 -13 -13 -13 -13 -12 -12 -12 -12 -11 -11 -11 -11 -11 -11 -10 -11 -11 -11 -11 -11 -11 -11 -11
-19 -19 -19 -18 -18 -18 -18 -18 -19 -19 -18 -17 -18 -18 -17 -16 -15 -15 -15 -14 -14 -14 -13 -13 -13 -13 -13 -13 -12 -12 -12 -12 -11 -11 -11 -11 -11 -11 -11 -11 -11 -11 -11 -11 -11
-19 -19 -19 -19 -19 -19 -19 -19 -19 -19 -17 -17 -17 -16 -17 -17 -16 -15 -15 -15 -14 -14 -14 -14 -13 -13 -13 -13 -12 -12 -12 -12 -12 -11 -11 -11 -11 -11 -11 -11 -11 -11 -11 -11 -11
-19 -19 -19 -19 -19 -19 -19 -20 -19 -18 -17 -17 -16 -16 -16 -16 -16 -16 -15 -15 -14 -14 -14 -13 -13 -13 -13 -13 -13 -12 -12 -12 -12 -11 -11 -11 -11 -11 -11 -11 -11 -11 -11 -11 -11
-19 -19 -19 -19 -20 -20 -20 -20 -19 -17 -16 -16 -16 -16 -17 -16 -17 -16 -16 -15 -15 -15 -14 -14 -14 -13 -13 -13 -13 -13 -13 -13 -12 -12 -11 -12 -11 -11 -11 -11 -11 -11 -12 -12 -12
-20 -19 -19 -19 -19 -19 -20 -19 -18 -18 -16 -17 -17 -17 -17 -17 -17 -17 -16 -16 -16 -15 -15 -14 -14 -14 -14 -14 -14 -13 -13 -13 -13 -13 -12 -12 -11 -11 -11 -11 -11 -11 -11 -11 -12
-20 -19 -19 -19 -19 -19 -19 -18 -18 -18 -17 -17 -17 -17 -17 -17 -17 -17 -17 -16 -16 -16 -15 -15 -15 -14 -14 -15 -14 -14 -14 -14 -13 -13 -12 -12 -12 -12 -11 -11 -11 -12 -12 -12 -12
-20 -20 -19 -19 -19 -19 -18 -18 -18 -18 -18 -17 -17 -17 -17 -17 -17 -17 -16 -16 -16 -16 -16 -15 -15 -15 -15 -15 -15 -14 -14 -14 -14 -13 -13 -12 -12 -12 -12 -12 -12 -12 -12 -12 -12
-20 -20 -19 -19 -20 -19 -19 -18 -18 -18 -18 -18 -17 -17 -17 -17 -17 -18 -17 -17 -16 -17 -16 -16 -16 -16 -15 -15 -15 -15 -15 -15 -14 -13 -13 -13 -12 -12 -12 -12 -12 -12 -12 -12 -12
-20 -20 -20 -20 -20 -20 -19 -18 -18 -18 -18 -18 -18 -18 -18 -18 -17 -17 -17 -18 -17 -17 -17 -17 -16 -17 -16 -16 -15 -15 -14 -15 -14 -14 -14 -14 -13 -13 -13 -12 -12 -13 -13 -13 -13
-20 -20 -20 -20 -19 -20 -19 -19 -19 -18 -18 -18 -18 -18 -18 -18 -18 -18 -18 -17 -18 -18 -18 -18 -17 -17 -16 -16 -15 -15 -15 -15 -15 -15 -14 -14 -14 -14 -14 -13 -14 -14 -14 -13 -13
-20 -20 -20 -20 -20 -19 -20 -19 -19 -19 -19 -18 -18 -18 -19 -19 -18 -18 -17 -17 -17 -18 -18 -18 -17 -17 -17 -16 -16 -16 -15 -16 -15 -15 -15 -14 -15 -14 -14 -14 -14 -14 -14 -14 -14
-21 -21 -20 -20 -21 -20 -19 -20 -20 -20 -19 -19 -19 -19 -19 -19 -18 -18 -17 -17 -17 -17 -17 -17 -17 -17 -17 -16 -16 -16 -15 -15 -15 -15 -14 -14 -14 -14 -14 -14 -15 -15 -15 -15 -15
-23 -22 -21 -20 -20 -20 -19 -19 -19 -20 -19 -19 -19 -19 -19 -19 -18 -18 -18 -18 -18 -18 -18 -17 -17 -17 -17 -16 -16 -16 -15 -15 -15 -15 -15 -15 -14 -15 -16 -16 -16 -16 -16 -16 -16

GFSSW_500_temp_078.txt.gz
Temp
-18 -17 -17 -16 -16 -15 -14 -14 -13 -13 -13 -12 -11 -11 -11 -11 -10 -9 -9 -10 -10 -9 -9 -9 -9 -9 -9 -10 -10 -9 -9 -10 -10 -10 -10 -10 -10 -10 -10 -10 -10 -10 -10 -10 -10
-18 -17 -17 -17 -16 -16 -15 -14 -14 -14 -13 -13 -12 -12 -12 -12 -11 -10 -9 -10 -10 -10 -9 -10 -10 -10 -10 -10 -10 -9 -10 -10 -10 -10 -10 -10 -10 -10 -10 -10 -10 -10 -10 -10 -10
-18 -18 -17 -18 -17 -16 -15 -15 -14 -14 -14 -13 -13 -11 -12 -12 -12 -11 -10 -11 -10 -10 -10 -10 -10 -10 -10 -10 -10 -10 -10 -10 -10 -10 -10 -10 -10 -10 -10 -10 -10 -10 -10 -10 -10
-18 -18 -18 -18 -17 -17 -16 -16 -15 -14 -14 -13 -12 -12 -12 -12 -12 -11 -11 -12 -10 -10 -10 -10 -10 -10 -10 -10 -10 -10 -10 -10 -10 -10 -10 -10 -10 -10 -10 -10 -10 -10 -10 -10 -10
-18 -18 -18 -18 -18 -17 -16 -16 -15 -14 -14 -13 -13 -12 -12 -12 -11 -12 -14 -12 -11 -10 -10 -10 -10 -10 -10 -10 -10 -11 -10 -10 -10 -10 -10 -10 -10 -10 -10 -10 -10 -10 -10 -10 -10
-18 -17 -18 -18 -18 -17 -17 -17 -16 -15 -14 -14 -13 -13 -13 -12 -13 -15 -15 -13 -11 -11 -10 -10 -11 -11 -11 -11 -11 -11 -10 -10 -10 -10 -10 -10 -10 -10 -10 -10 -10 -10 -10 -10 -10
-18 -18 -19 -19 -18 -17 -17 -17 -17 -16 -15 -13 -13 -13 -14 -15 -14 -15 -13 -12 -12 -11 -11 -11 -11 -11 -11 -11 -11 -11 -11 -10 -10 -10 -10 -10 -10 -10 -10 -10 -10 -10 -10 -10 -10
-18 -18 -18 -18 -18 -18 -17 -17 -17 -17 -16 -15 -16 -15 -17 -16 -15 -14 -13 -12 -12 -11 -11 -12 -11 -11 -11 -11 -11 -11 -11 -10 -10 -10 -10 -10 -10 -10 -10 -10 -10 -10 -10 -10 -10
-18 -17 -19 -19 -19 -18 -17 -18 -17 -17 -17 -19 -17 -17 -17 -16 -15 -14 -13 -13 -12 -12 -11 -11 -12 -11 -11 -11 -11 -11 -10 -10 -10 -10 -11 -11 -10 -10 -11 -10 -10 -10 -11 -11 -10
-18 -18 -19 -19 -19 -18 -18 -18 -18 -17 -17 -18 -19 -18 -17 -15 -15 -14 -13 -13 -13 -13 -12 -12 -11 -11 -11 -11 -10 -10 -11 -10 -10 -10 -11 -11 -11 -10 -10 -11 -11 -10 -10 -10 -10
-18 -18 -19 -19 -18 -18 -18 -18 -18 -17 -16 -16 -17 -17 -16 -15 -15 -14 -14 -13 -13 -13 -12 -12 -11 -11 -11 -11 -12 -11 -11 -11 -11 -11 -11 -11 -11 -10 -10 -10 -11 -11 -11 -10 -10
-18 -18 -19 -19 -19 -18 -18 -17 -18 -16 -16 -16 -17 -18 -16 -16 -15 -14 -14 -14 -13 -13 -13 -12 -11 -12 -13 -12 -12 -11 -11 -11 -11 -11 -11 -11 -11 -11 -10 -11 -10 -10 -10 -10 -11
-18 -18 -19 -19 -19 -18 -18 -18 -19 -18 -17 -18 -17 -17 -17 -16 -15 -15 -14 -14 -14 -13 -13 -12 -13 -13 -12 -12 -12 -11 -11 -11 -11 -11 -11 -11 -11 -11 -10 -11 -10 -10 -11 -11 -11
-18 -19 -19 -20 -19 -18 -18 -19 -19 -18 -18 -19 -17 -18 -17 -16 -16 -15 -15 -14 -14 -13 -13 -13 -14 -13 -13 -12 -12 -12 -12 -12 -11 -11 -11 -11 -10 -11 -10 -10 -10 -10 -10 -10 -11
-18 -18 -18 -19 -19 -18 -18 -19 -19 -19 -18 -19 -18 -18 -17 -16 -16 -15 -15 -15 -14 -14 -13 -13 -13 -13 -13 -13 -13 -12 -12 -12 -12 -11 -11 -11 -11 -11 -11 -10 -10 -10 -10 -10 -10
-18 -18 -18 -19 -19 -20 -19 -19 -20 -19 -18 -18 -18 -17 -17 -17 -16 -16 -15 -15 -14 -14 -14 -14 -13 -13 -13 -13 -13 -13 -12 -12 -12 -12 -11 -11 -11 -10 -11 -10 -10 -10 -10 -11 -11
-19 -19 -19 -19 -20 -20 -20 -20 -20 -20 -18 -18 -16 -16 -16 -16 -16 -16 -15 -15 -14 -14 -14 -14 -14 -13 -13 -13 -13 -13 -12 -12 -12 -12 -11 -11 -11 -11 -10 -11 -11 -11 -11 -11 -11
-19 -19 -19 -20 -20 -20 -20 -20 -20 -19 -17 -17 -17 -17 -17 -17 -17 -16 -15 -15 -15 -14 -14 -14 -14 -14 -14 -13 -13 -13 -13 -12 -12 -12 -11 -12 -11 -11 -11 -11 -11 -11 -11 -11 -11
-19 -19 -20 -21 -20 -21 -21 -20 -19 -18 -17 -17 -17 -18 -17 -17 -17 -16 -16 -15 -15 -15 -15 -14 -14 -14 -13 -13 -13 -13 -13 -13 -13 -12 -12 -12 -11 -11 -11 -11 -11 -11 -11 -12 -12
-20 -19 -20 -21 -20 -20 -20 -19 -19 -19 -18 -18 -17 -17 -17 -17 -17 -16 -16 -15 -15 -15 -15 -15 -15 -14 -14 -14 -14 -14 -14 -14 -13 -13 -12 -12 -12 -11 -12 -11 -12 -12 -11 -12 -12
-20 -20 -20 -20 -20 -20 -19 -18 -19 -19 -19 -18 -17 -18 -17 -16 -17 -16 -16 -15 -16 -16 -16 -15 -15 -15 -15 -15 -14 -14 -14 -14 -14 -13 -13 -12 -12 -12 -12 -12 -12 -12 -12 -12 -12
-20 -20 -20 -19 -20 -20 -19 -18 -19 -19 -19 -18 -18 -18 -18 -17 -17 -17 -16 -16 -16 -16 -16 -16 -16 -16 -15 -15 -15 -15 -15 -15 -14 -14 -14 -14 -13 -13 -13 -13 -13 -12 -12 -12 -13
-21 -20 -20 -20 -20 -19 -19 -18 -18 -19 -19 -18 -18 -19 -19 -19 -18 -17 -17 -18 -18 -17 -17 -17 -17 -16 -16 -16 -15 -15 -15 -15 -15 -15 -14 -14 -13 -13 -13 -13 -12 -13 -13 -13 -13
-21 -21 -20 -20 -20 -19 -19 -19 -19 -18 -19 -18 -18 -18 -19 -19 -19 -18 -18 -18 -18 -18 -17 -17 -17 -17 -16 -16 -16 -16 -15 -15 -15 -15 -14 -14 -14 -13 -13 -14 -14 -14 -14 -14 -14
-21 -21 -20 -20 -20 -20 -20 -19 -19 -19 -19 -18 -19 -19 -18 -19 -19 -19 -19 -18 -18 -17 -17 -17 -17 -17 -16 -16 -16 -16 -16 -16 -16 -15 -15 -14 -15 -14 -14 -15 -15 -15 -14 -14 -14
-21 -21 -21 -21 -20 -20 -21 -21 -20 -20 -20 -19 -19 -19 -19 -19 -19 -19 -18 -19 -19 -18 -19 -19 -17 -17 -17 -17 -16 -16 -16 -16 -15 -15 -15 -14 -14 -14 -15 -15 -15 -14 -14 -15 -15
-21 -21 -21 -21 -20 -20 -20 -20 -20 -20 -20 -20 -19 -19 -19 -19 -19 -19 -19 -20 -20 -19 -19 -19 -19 -18 -17 -17 -17 -17 -15 -15 -16 -16 -15 -15 -15 -15 -15 -15 -15 -15 -15 -15 -15

GFSSW_500_temp_084.txt.gz
Temp
-16 -17 -16 -17 -17 -17 -16 -16 -15 -15 -15 -13 -12 -12 -12 -11 -10 -10 -11 -12 -10 -9 -9 -9 -10 -11 -10 -10 -9 -9 -9 -8 -9 -9 -10 -10 -10 -10 -10 -10 -10 -10 -10 -10 -10
-17 -17 -16 -17 -17 -17 -16 -16 -16 -15 -15 -14 -13 -13 -13 -11 -11 -11 -10 -11 -10 -10 -9 -9 -11 -11 -10 -10 -10 -9 -9 -10 -10 -10 -9 -10 -10 -10 -10 -10 -10 -10 -10 -10 -10
-17 -17 -17 -16 -17 -17 -16 -16 -16 -15 -15 -14 -13 -13 -13 -11 -11 -11 -11 -11 -11 -10 -9 -10 -11 -11 -10 -10 -10 -10 -10 -10 -9 -9 -10 -10 -10 -10 -10 -10 -10 -10 -10 -10 -10
-18 -18 -17 -17 -17 -16 -16 -16 -16 -15 -15 -14 -13 -13 -13 -12 -11 -11 -11 -12 -11 -10 -10 -10 -11 -11 -9 -10 -10 -10 -10 -9 -9 -10 -10 -10 -10 -10 -10 -10 -10 -10 -10 -10 -10
-18 -18 -17 -17 -17 -17 -17 -17 -16 -16 -16 -14 -14 -13 -13 -12 -11 -11 -11 -12 -11 -11 -10 -10 -11 -11 -10 -10 -11 -10 -10 -10 -10 -10 -10 -10 -10 -10 -10 -10 -10 -10 -10 -10 -10
-18 -18 -17 -18 -18 -17 -17 -17 -16 -16 -16 -15 -14 -13 -13 -12 -12 -12 -12 -11 -11 -11 -11 -10 -11 -11 -10 -11 -11 -11 -11 -11 -10 -10 -10 -10 -10 -10 -10 -10 -10 -10 -10 -10 -10
-18 -18 -18 -18 -18 -18 -18 -17 -17 -17 -16 -16 -15 -14 -13 -13 -13 -12 -11 -12 -11 -11 -11 -10 -11 -10 -11 -11 -11 -11 -11 -11 -10 -10 -10 -10 -10 -10 -10 -10 -10 -10 -10 -10 -10
-19 -18 -18 -18 -18 -18 -18 -18 -18 -18 -17 -16 -15 -15 -14 -13 -13 -13 -13 -12 -12 -12 -12 -11 -11 -11 -10 -11 -11 -11 -11 -11 -10 -10 -10 -10 -10 -10 -10 -10 -10 -10 -10 -10 -10
-18 -18 -19 -18 -19 -19 -19 -18 -19 -18 -17 -16 -15 -15 -14 -13 -13 -14 -12 -12 -12 -12 -12 -11 -12 -11 -10 -11 -11 -11 -10 -11 -11 -10 -10 -10 -10 -10 -10 -10 -10 -10 -10 -10 -10
-18 -19 -19 -18 -19 -19 -20 -18 -18 -18 -17 -16 -16 -15 -14 -13 -13 -13 -13 -13 -13 -13 -13 -12 -13 -11 -10 -11 -10 -11 -11 -11 -11 -10 -10 -10 -10 -10 -10 -10 -10 -10 -10 -10 -10
-19 -19 -18 -18 -18 -18 -18 -18 -18 -18 -17 -16 -15 -16 -14 -15 -14 -13 -13 -13 -13 -12 -12 -14 -13 -11 -11 -11 -12 -12 -11 -11 -11 -11 -11 -10 -11 -11 -10 -10 -10 -10 -10 -10 -10
-18 -19 -17 -18 -18 -18 -18 -17 -18 -17 -16 -16 -16 -17 -16 -15 -15 -14 -13 -13 -12 -12 -13 -15 -12 -11 -11 -12 -12 -12 -12 -11 -11 -11 -11 -11 -11 -11 -10 -10 -10 -10 -10 -10 -10
-18 -18 -19 -19 -18 -18 -18 -18 -19 -18 -18 -17 -17 -16 -16 -15 -15 -14 -13 -13 -13 -13 -13 -14 -12 -12 -12 -12 -12 -12 -12 -11 -11 -11 -11 -11 -11 -11 -10 -10 -10 -10 -10 -10 -10
-18 -19 -18 -18 -19 -18 -18 -18 -19 -19 -19 -18 -18 -17 -17 -16 -15 -14 -15 -14 -13 -14 -15 -14 -13 -13 -12 -13 -12 -12 -12 -12 -12 -12 -11 -11 -11 -11 -10 -11 -11 -11 -10 -10 -10
-19 -18 -19 -18 -18 -18 -18 -19 -20 -20 -20 -19 -19 -18 -18 -17 -16 -15 -16 -16 -16 -16 -16 -15 -13 -13 -13 -13 -13 -12 -12 -12 -12 -12 -12 -11 -11 -11 -10 -10 -11 -11 -11 -10 -10
-19 -19 -19 -18 -18 -18 -18 -20 -21 -21 -21 -19 -18 -18 -18 -17 -17 -17 -17 -18 -18 -18 -17 -15 -15 -14 -14 -14 -13 -13 -12 -13 -13 -12 -12 -11 -11 -11 -10 -10 -11 -11 -10 -10 -10
-19 -18 -19 -18 -18 -18 -19 -21 -22 -21 -20 -19 -18 -17 -18 -18 -17 -17 -17 -18 -18 -17 -17 -15 -15 -15 -14 -14 -14 -13 -13 -13 -13 -12 -11 -11 -11 -11 -11 -10 -11 -11 -11 -11 -10
-19 -19 -18 -18 -18 -19 -20 -22 -21 -19 -19 -18 -18 -18 -18 -18 -18 -18 -18 -19 -19 -18 -17 -16 -15 -15 -14 -14 -13 -13 -13 -13 -13 -12 -11 -12 -11 -11 -11 -10 -11 -11 -11 -11 -11
-19 -19 -19 -18 -18 -20 -20 -20 -17 -18 -19 -19 -18 -19 -18 -18 -19 -18 -18 -18 -19 -17 -17 -16 -15 -15 -15 -15 -14 -14 -14 -13 -13 -12 -12 -12 -11 -11 -11 -11 -11 -11 -11 -11 -11
-19 -19 -20 -19 -19 -20 -19 -18 -19 -19 -20 -19 -19 -18 -17 -17 -17 -18 -18 -18 -18 -17 -16 -16 -15 -15 -15 -15 -14 -14 -14 -14 -13 -13 -12 -12 -11 -11 -11 -11 -11 -11 -11 -11 -11
-20 -20 -20 -20 -20 -20 -17 -17 -19 -19 -20 -20 -19 -18 -17 -17 -17 -17 -18 -18 -18 -17 -16 -16 -16 -16 -15 -15 -14 -14 -14 -14 -14 -13 -13 -12 -11 -12 -12 -12 -12 -11 -11 -11 -11
-20 -20 -20 -20 -20 -19 -18 -18 -20 -20 -20 -20 -19 -19 -18 -18 -18 -18 -18 -18 -18 -17 -17 -16 -16 -16 -15 -15 -15 -14 -14 -14 -14 -13 -13 -13 -12 -12 -12 -12 -12 -12 -12 -12 -12
-20 -20 -20 -20 -20 -19 -19 -20 -20 -20 -20 -20 -19 -19 -19 -18 -19 -18 -19 -19 -18 -18 -18 -17 -16 -16 -16 -16 -15 -15 -15 -14 -14 -14 -14 -13 -12 -13 -12 -12 -13 -13 -13 -13 -12
-21 -21 -20 -20 -19 -20 -19 -19 -20 -20 -20 -20 -19 -20 -20 -19 -18 -19 -19 -19 -19 -18 -18 -18 -17 -17 -16 -15 -15 -15 -15 -15 -15 -15 -14 -13 -13 -13 -13 -13 -13 -13 -13 -13 -13
-21 -21 -21 -21 -20 -20 -20 -20 -19 -19 -19 -19 -20 -20 -20 -19 -19 -18 -19 -20 -20 -20 -19 -19 -18 -18 -17 -17 -16 -16 -16 -16 -15 -14 -15 -13 -14 -14 -14 -14 -14 -14 -14 -14 -13
-22 -21 -21 -21 -20 -20 -20 -20 -20 -20 -20 -20 -19 -20 -20 -20 -19 -18 -18 -18 -19 -19 -20 -19 -18 -18 -17 -17 -17 -16 -16 -16 -16 -15 -16 -15 -15 -15 -15 -15 -14 -14 -14 -14 -14
-22 -22 -21 -21 -21 -21 -21 -20 -20 -20 -20 -20 -20 -20 -20 -20 -20 -20 -19 -19 -18 -19 -19 -19 -18 -18 -18 -17 -17 -17 -16 -16 -16 -16 -15 -15 -14 -15 -15 -14 -14 -15 -15 -15 -15

GFSSW_500_temp_087.txt.gz
Temp
-17 -17 -16 -17 -16 -16 -16 -15 -15 -14 -13 -12 -12 -12 -11 -11 -11 -11 -10 -10 -11 -11 -10 -9 -9 -9 -9 -9 -9 -9 -9 -9 -9 -8 -9 -9 -10 -10 -10 -11 -11 -10 -10 -10 -10
-17 -17 -17 -17 -16 -16 -16 -16 -15 -15 -15 -14 -13 -13 -13 -12 -12 -11 -11 -10 -11 -11 -10 -10 -9 -9 -9 -9 -9 -9 -9 -9 -9 -9 -9 -9 -10 -10 -10 -11 -11 -10 -10 -10 -10
-17 -17 -17 -17 -17 -17 -16 -16 -16 -16 -15 -14 -13 -13 -13 -13 -12 -11 -11 -10 -11 -10 -10 -11 -10 -9 -9 -9 -9 -9 -10 -10 -9 -9 -9 -10 -10 -10 -10 -10 -10 -10 -10 -10 -10
-17 -18 -18 -17 -17 -17 -16 -16 -16 -16 -16 -15 -14 -14 -14 -14 -12 -12 -11 -10 -10 -11 -11 -11 -10 -10 -10 -10 -9 -10 -10 -10 -9 -10 -9 -10 -10 -10 -10 -10 -10 -10 -10 -10 -10
-17 -18 -18 -17 -17 -17 -17 -16 -16 -16 -16 -15 -15 -15 -14 -14 -13 -12 -11 -11 -11 -12 -11 -10 -10 -10 -10 -11 -10 -10 -10 -10 -9 -10 -9 -10 -10 -10 -10 -11 -10 -10 -10 -10 -10
-17 -18 -18 -18 -18 -18 -17 -17 -16 -16 -16 -16 -15 -15 -14 -14 -13 -12 -11 -11 -11 -11 -10 -10 -10 -10 -10 -12 -10 -10 -11 -10 -9 -10 -9 -10 -10 -10 -10 -10 -10 -10 -10 -10 -10
-18 -18 -18 -19 -18 -18 -17 -17 -17 -16 -16 -16 -15 -15 -14 -14 -13 -12 -12 -11 -11 -12 -11 -11 -11 -10 -9 -13 -10 -10 -10 -10 -10 -10 -10 -10 -10 -10 -10 -10 -10 -10 -10 -10 -10
-17 -18 -18 -19 -19 -18 -18 -18 -17 -17 -16 -15 -15 -15 -15 -14 -13 -12 -12 -12 -12 -12 -14 -11 -11 -10 -10 -11 -11 -10 -10 -10 -10 -10 -10 -10 -10 -10 -10 -10 -10 -10 -10 -10 -10
-18 -18 -18 -19 -19 -18 -18 -18 -18 -18 -16 -16 -15 -15 -15 -14 -13 -13 -13 -12 -12 -13 -13 -12 -12 -11 -11 -13 -11 -10 -10 -9 -10 -10 -10 -10 -10 -10 -10 -10 -10 -10 -10 -10 -10
-18 -18 -18 -19 -19 -19 -18 -18 -18 -18 -17 -17 -16 -15 -14 -14 -14 -13 -13 -13 -14 -13 -12 -12 -12 -12 -11 -12 -10 -10 -10 -10 -10 -10 -10 -10 -10 -10 -10 -10 -10 -10 -10 -10 -10
-18 -18 -19 -19 -18 -18 -18 -18 -18 -17 -16 -16 -14 -15 -15 -15 -14 -14 -14 -13 -13 -14 -13 -13 -13 -12 -11 -11 -11 -10 -11 -10 -11 -11 -11 -10 -10 -10 -10 -10 -10 -10 -10 -10 -10
-19 -19 -18 -19 -19 -18 -18 -18 -18 -16 -16 -15 -16 -16 -16 -16 -15 -14 -14 -13 -13 -14 -13 -13 -12 -12 -12 -12 -11 -11 -11 -11 -11 -11 -11 -11 -10 -11 -10 -10 -10 -10 -10 -10 -10
-20 -19 -19 -18 -19 -18 -18 -19 -18 -18 -18 -18 -17 -16 -16 -16 -15 -15 -14 -14 -13 -14 -13 -13 -13 -13 -12 -13 -11 -11 -11 -11 -11 -11 -11 -11 -10 -10 -10 -10 -10 -10 -10 -10 -10
-19 -18 -19 -18 -19 -18 -19 -19 -18 -18 -18 -18 -18 -18 -17 -16 -15 -15 -15 -14 -14 -14 -13 -13 -13 -13 -13 -14 -12 -11 -12 -12 -12 -12 -12 -11 -10 -10 -10 -10 -10 -10 -10 -10 -10
-19 -19 -19 -19 -19 -19 -19 -18 -18 -19 -19 -19 -19 -18 -18 -17 -16 -15 -15 -15 -14 -14 -13 -12 -13 -13 -14 -13 -12 -12 -12 -13 -12 -12 -12 -12 -11 -11 -10 -10 -10 -10 -10 -10 -10
-19 -19 -19 -19 -18 -19 -19 -19 -19 -19 -19 -18 -18 -18 -17 -17 -17 -17 -15 -15 -14 -14 -13 -13 -14 -14 -15 -14 -13 -13 -13 -13 -13 -13 -12 -11 -11 -10 -10 -10 -10 -10 -10 -10 -10
-19 -19 -18 -19 -18 -19 -19 -19 -19 -18 -18 -17 -17 -17 -17 -17 -17 -16 -16 -15 -15 -14 -13 -14 -15 -15 -16 -15 -15 -14 -14 -13 -14 -13 -11 -11 -11 -10 -11 -11 -10 -10 -11 -11 -11
-20 -20 -19 -19 -19 -19 -19 -18 -19 -18 -16 -17 -17 -18 -18 -18 -17 -17 -17 -16 -15 -15 -14 -14 -14 -16 -16 -15 -14 -13 -14 -13 -12 -11 -12 -12 -11 -11 -11 -11 -11 -11 -11 -11 -11
-20 -20 -19 -19 -19 -19 -19 -18 -17 -17 -17 -17 -18 -19 -18 -19 -18 -18 -17 -16 -15 -15 -15 -15 -16 -17 -17 -15 -14 -14 -14 -13 -13 -12 -12 -12 -11 -11 -11 -11 -11 -11 -11 -11 -11
-20 -19 -19 -19 -19 -19 -19 -18 -17 -18 -18 -18 -18 -17 -17 -17 -17 -17 -17 -16 -16 -16 -16 -17 -17 -18 -18 -17 -16 -15 -15 -14 -14 -13 -12 -12 -12 -11 -11 -12 -11 -11 -11 -11 -11
-20 -20 -19 -19 -19 -19 -18 -18 -18 -18 -18 -19 -19 -19 -18 -18 -17 -17 -17 -16 -16 -16 -17 -18 -19 -18 -18 -17 -15 -15 -15 -14 -14 -13 -13 -12 -11 -11 -12 -12 -12 -12 -11 -12 -12
-19 -19 -19 -20 -20 -19 -18 -18 -19 -18 -19 -19 -20 -19 -19 -18 -18 -18 -17 -17 -17 -18 -18 -18 -18 -18 -18 -16 -15 -15 -15 -15 -14 -14 -14 -13 -12 -12 -12 -12 -12 -12 -12 -12 -12
-20 -19 -20 -20 -20 -19 -19 -19 -19 -19 -20 -20 -19 -19 -19 -19 -19 -19 -18 -19 -19 -19 -19 -19 -19 -18 -18 -17 -16 -16 -16 -15 -15 -15 -14 -13 -12 -12 -12 -12 -13 -12 -12 -12 -12
-21 -20 -20 -20 -19 -19 -18 -19 -19 -19 -20 -20 -20 -19 -20 -19 -19 -18 -19 -20 -19 -19 -20 -20 -19 -19 -18 -17 -16 -16 -16 -16 -15 -15 -14 -13 -13 -13 -13 -13 -13 -13 -13 -13 -13
-21 -20 -20 -20 -20 -19 -19 -20 -19 -19 -19 -20 -20 -20 -20 -19 -19 -19 -19 -20 -19 -20 -20 -20 -20 -19 -19 -19 -17 -17 -16 -16 -16 -15 -15 -14 -14 -14 -14 -14 -14 -14 -13 -13 -13
-22 -21 -20 -19 -20 -19 -20 -20 -19 -19 -19 -20 -20 -20 -20 -20 -19 -18 -19 -19 -19 -19 -20 -20 -19 -19 -19 -19 -19 -19 -17 -16 -16 -16 -15 -14 -14 -14 -14 -14 -14 -14 -14 -14 -14
-22 -22 -21 -20 -20 -20 -19 -20 -20 -20 -19 -20 -21 -21 -21 -20 -20 -19 -20 -19 -19 -19 -19 -20 -20 -20 -19 -19 -19 -19 -18 -17 -16 -16 -15 -15 -14 -14 -15 -14 -14 -14 -14 -14 -14

GFSSW_500_temp_093.txt.gz
Temp
-17 -16 -16 -17 -16 -16 -14 -13 -13 -13 -12 -12 -11 -12 -12 -12 -11 -10 -10 -11 -11 -10 -10 -9 -8 -9 -9 -9 -9 -9 -9 -8 -8 -9 -8 -9 -9 -9 -9 -10 -10 -10 -10 -10 -10
-18 -16 -17 -16 -16 -17 -15 -14 -14 -14 -13 -13 -12 -12 -13 -11 -11 -11 -11 -11 -11 -10 -10 -10 -9 -9 -10 -9 -9 -9 -9 -9 -8 -9 -8 -9 -9 -9 -10 -10 -10 -10 -10 -10 -10
-18 -17 -17 -17 -17 -17 -16 -14 -14 -14 -14 -14 -14 -13 -13 -12 -11 -11 -11 -11 -11 -11 -10 -10 -10 -9 -11 -10 -9 -9 -9 -9 -8 -9 -9 -9 -10 -9 -9 -10 -10 -10 -11 -10 -10
-20 -18 -18 -17 -17 -17 -16 -16 -15 -14 -14 -14 -15 -14 -14 -13 -11 -11 -12 -11 -11 -11 -11 -10 -10 -10 -9 -10 -10 -9 -10 -9 -9 -9 -9 -10 -10 -9 -9 -10 -10 -10 -11 -10 -11
-20 -18 -18 -17 -17 -17 -17 -16 -15 -15 -14 -15 -15 -15 -14 -13 -12 -12 -12 -12 -12 -12 -11 -11 -11 -11 -9 -10 -9 -10 -11 -10 -9 -9 -10 -10 -10 -9 -10 -10 -10 -10 -11 -11 -11
-20 -19 -18 -17 -17 -17 -17 -16 -16 -15 -15 -15 -15 -15 -14 -13 -14 -13 -12 -12 -12 -12 -11 -11 -11 -11 -10 -11 -10 -10 -10 -10 -9 -9 -10 -10 -10 -9 -10 -10 -10 -10 -11 -11 -11
-21 -20 -17 -18 -17 -17 -17 -17 -16 -16 -16 -15 -15 -15 -14 -15 -14 -13 -12 -12 -12 -12 -12 -11 -11 -12 -12 -11 -10 -10 -10 -9 -9 -9 -10 -10 -10 -10 -10 -10 -10 -10 -11 -11 -11
-21 -21 -19 -18 -17 -17 -17 -17 -17 -16 -16 -15 -16 -15 -14 -15 -14 -13 -13 -12 -12 -12 -12 -11 -12 -12 -11 -10 -11 -11 -10 -10 -9 -9 -10 -10 -10 -10 -10 -10 -10 -10 -10 -10 -11
-22 -21 -19 -18 -18 -17 -17 -17 -16 -15 -16 -16 -16 -15 -15 -14 -14 -14 -13 -13 -13 -12 -12 -12 -11 -12 -12 -12 -11 -11 -11 -11 -11 -9 -10 -10 -10 -10 -10 -10 -10 -10 -10 -10 -11
-22 -21 -20 -19 -18 -17 -17 -17 -17 -16 -17 -18 -17 -17 -15 -14 -14 -14 -13 -14 -13 -13 -12 -12 -12 -12 -12 -11 -11 -11 -11 -11 -11 -10 -10 -10 -10 -11 -11 -10 -10 -10 -10 -10 -10
-22 -21 -20 -18 -19 -18 -18 -16 -16 -17 -17 -16 -16 -16 -15 -15 -14 -14 -14 -13 -13 -13 -12 -12 -12 -12 -11 -10 -12 -12 -11 -12 -11 -12 -10 -10 -11 -11 -11 -10 -10 -10 -10 -10 -10
-22 -21 -20 -20 -18 -18 -18 -16 -17 -17 -17 -17 -17 -16 -16 -16 -15 -14 -14 -14 -13 -13 -13 -12 -12 -12 -12 -12 -12 -12 -12 -12 -12 -12 -11 -11 -11 -11 -10 -10 -10 -10 -10 -10 -10
-22 -22 -21 -20 -19 -18 -18 -17 -17 -17 -17 -17 -17 -16 -16 -16 -15 -15 -14 -13 -13 -13 -13 -12 -12 -12 -13 -12 -12 -12 -12 -12 -13 -12 -13 -12 -11 -10 -10 -10 -10 -10 -10 -10 -10
-22 -21 -21 -19 -19 -18 -18 -18 -18 -18 -17 -17 -17 -17 -16 -16 -16 -15 -15 -15 -14 -13 -13 -13 -12 -12 -13 -13 -13 -12 -12 -13 -13 -13 -13 -13 -10 -9 -10 -10 -10 -10 -10 -10 -10
-21 -20 -19 -19 -19 -18 -18 -18 -18 -18 -19 -18 -17 -17 -17 -17 -16 -15 -16 -15 -15 -14 -13 -12 -12 -12 -12 -12 -13 -12 -13 -13 -13 -13 -14 -14 -12 -10 -10 -10 -9 -10 -10 -10 -10
-21 -19 -19 -19 -19 -19 -19 -19 -18 -19 -18 -18 -18 -18 -17 -17 -18 -17 -17 -16 -15 -14 -14 -13 -13 -13 -12 -13 -13 -14 -13 -13 -13 -13 -14 -13 -12 -10 -10 -9 -10 -10 -10 -10 -10
-21 -20 -20 -19 -19 -19 -19 -19 -19 -19 -18 -18 -17 -18 -18 -18 -18 -18 -17 -15 -15 -15 -14 -13 -13 -13 -13 -13 -13 -14 -13 -13 -13 -13 -11 -12 -12 -9 -10 -10 -10 -10 -10 -10 -10
-20 -19 -20 -19 -19 -19 -19 -19 -19 -18 -18 -17 -17 -18 -18 -18 -18 -18 -18 -16 -16 -16 -14 -13 -13 -13 -12 -13 -13 -13 -13 -14 -13 -12 -11 -11 -11 -9 -10 -10 -10 -10 -11 -10 -11
-20 -19 -20 -19 -19 -19 -18 -18 -18 -17 -17 -17 -18 -18 -18 -18 -18 -18 -17 -17 -16 -15 -15 -14 -14 -13 -13 -13 -14 -14 -14 -14 -14 -13 -13 -12 -10 -10 -10 -11 -11 -11 -11 -11 -11
-22 -21 -20 -20 -19 -19 -19 -18 -18 -18 -17 -18 -18 -17 -17 -17 -17 -17 -17 -16 -16 -16 -16 -15 -15 -14 -13 -14 -14 -14 -14 -14 -14 -13 -13 -12 -11 -10 -10 -10 -11 -11 -11 -11 -11
-23 -22 -20 -20 -19 -20 -19 -18 -18 -18 -17 -18 -17 -17 -17 -17 -17 -17 -17 -16 -16 -16 -16 -16 -15 -14 -14 -13 -14 -14 -14 -14 -14 -13 -13 -12 -11 -11 -11 -11 -11 -12 -12 -12 -12
-22 -22 -20 -19 -20 -19 -18 -19 -18 -18 -18 -18 -18 -18 -18 -18 -17 -17 -17 -17 -17 -17 -17 -16 -16 -16 -15 -14 -14 -14 -14 -14 -14 -13 -13 -13 -11 -11 -12 -11 -12 -12 -12 -12 -12
-23 -21 -20 -20 -20 -19 -19 -19 -18 -18 -18 -18 -18 -18 -18 -19 -19 -18 -18 -18 -18 -17 -17 -17 -16 -16 -15 -15 -15 -15 -15 -14 -14 -15 -14 -13 -11 -13 -13 -13 -12 -12 -13 -12 -12
-22 -23 -22 -21 -20 -20 -19 -19 -19 -19 -19 -19 -19 -19 -19 -19 -19 -18 -18 -19 -19 -18 -19 -19 -17 -16 -15 -14 -15 -15 -14 -15 -15 -15 -14 -13 -14 -16 -14 -15 -14 -13 -13 -13 -13
-23 -23 -22 -21 -21 -20 -19 -19 -19 -19 -19 -19 -19 -19 -18 -19 -18 -17 -17 -18 -19 -19 -19 -18 -16 -16 -16 -17 -17 -17 -17 -16 -16 -15 -16 -14 -16 -16 -16 -15 -15 -14 -14 -14 -13
-24 -23 -24 -22 -22 -20 -20 -19 -19 -19 -18 -18 -18 -19 -18 -18 -17 -17 -17 -18 -18 -18 -18 -17 -16 -17 -17 -18 -18 -17 -18 -18 -17 -17 -16 -17 -16 -17 -16 -16 -15 -15 -14 -14 -14
-24 -23 -23 -24 -22 -22 -20 -19 -19 -19 -19 -19 -19 -19 -19 -18 -19 -20 -20 -20 -20 -19 -19 -19 -18 -18 -17 -19 -19 -19 -17 -18 -17 -17 -16 -16 -14 -17 -17 -16 -16 -16 -15 -15 -15

GFSSW_500_temp_096.txt.gz
Temp
-19 -18 -18 -17 -16 -17 -16 -16 -15 -14 -13 -13 -13 -12 -12 -11 -10 -9 -10 -11 -11 -11 -11 -10 -10 -10 -10 -10 -10 -9 -9 -9 -8 -9 -9 -9 -9 -10 -9 -9 -9 -9 -9 -9 -9
-19 -19 -18 -18 -17 -17 -17 -16 -16 -15 -15 -14 -14 -14 -12 -11 -11 -10 -11 -11 -11 -11 -10 -10 -10 -11 -10 -10 -10 -10 -9 -9 -9 -9 -9 -9 -9 -10 -10 -9 -10 -10 -10 -10 -10
-20 -20 -19 -18 -17 -17 -17 -17 -16 -16 -15 -15 -14 -14 -13 -12 -11 -10 -11 -11 -11 -11 -11 -11 -10 -10 -10 -9 -9 -10 -10 -10 -9 -9 -9 -9 -9 -10 -9 -9 -10 -10 -10 -10 -10
-22 -20 -20 -18 -17 -17 -17 -17 -17 -16 -15 -15 -15 -14 -14 -13 -11 -12 -11 -11 -11 -11 -11 -11 -10 -10 -10 -10 -10 -10 -9 -9 -9 -9 -10 -10 -10 -10 -10 -10 -9 -10 -10 -10 -10
-23 -22 -21 -18 -18 -17 -17 -17 -17 -17 -16 -15 -15 -15 -14 -12 -12 -12 -11 -11 -11 -11 -12 -11 -10 -10 -10 -10 -11 -10 -10 -9 -9 -9 -9 -10 -10 -10 -10 -10 -10 -11 -10 -11 -10
-24 -23 -22 -20 -20 -17 -17 -17 -17 -17 -16 -15 -15 -15 -14 -13 -14 -13 -12 -12 -11 -11 -11 -11 -11 -10 -11 -11 -11 -10 -10 -10 -10 -9 -9 -10 -10 -10 -11 -10 -10 -11 -11 -10 -11
-24 -23 -22 -21 -20 -18 -17 -17 -17 -17 -16 -16 -16 -15 -14 -14 -14 -15 -13 -12 -12 -12 -12 -12 -11 -11 -11 -12 -11 -11 -10 -10 -10 -10 -9 -9 -10 -10 -11 -10 -11 -11 -11 -11 -11
-24 -23 -22 -21 -20 -19 -18 -17 -17 -17 -17 -16 -16 -15 -14 -15 -14 -14 -14 -13 -13 -12 -12 -12 -12 -11 -11 -11 -11 -11 -11 -10 -10 -10 -10 -9 -9 -10 -11 -11 -10 -11 -11 -11 -11
-24 -23 -22 -21 -19 -18 -17 -17 -17 -17 -17 -17 -17 -16 -15 -15 -15 -14 -14 -13 -13 -13 -12 -12 -12 -12 -12 -11 -11 -11 -10 -10 -11 -10 -10 -9 -10 -10 -10 -11 -11 -10 -11 -11 -11
-24 -23 -22 -21 -18 -18 -17 -17 -17 -17 -18 -18 -17 -17 -15 -14 -14 -14 -14 -14 -13 -13 -13 -13 -12 -12 -12 -10 -10 -10 -11 -10 -10 -10 -11 -10 -10 -10 -10 -11 -11 -10 -11 -11 -11
-24 -23 -22 -21 -19 -18 -17 -18 -17 -18 -17 -16 -16 -16 -15 -15 -15 -15 -15 -14 -14 -13 -13 -12 -12 -11 -11 -11 -11 -12 -11 -11 -11 -12 -11 -11 -11 -10 -10 -11 -11 -11 -10 -10 -10
-24 -23 -22 -21 -19 -18 -18 -17 -17 -16 -16 -17 -17 -16 -16 -15 -15 -15 -15 -14 -14 -13 -13 -12 -12 -12 -12 -12 -12 -12 -11 -11 -12 -12 -11 -11 -11 -11 -10 -10 -11 -11 -11 -10 -11
-24 -23 -23 -22 -21 -19 -19 -17 -17 -16 -16 -16 -16 -17 -17 -16 -16 -16 -15 -14 -14 -13 -13 -13 -12 -12 -12 -12 -12 -12 -11 -12 -12 -12 -12 -12 -11 -11 -10 -10 -10 -10 -10 -10 -11
-24 -23 -23 -22 -21 -19 -19 -17 -17 -17 -17 -17 -17 -17 -18 -18 -17 -16 -16 -15 -14 -13 -13 -13 -13 -12 -12 -12 -12 -12 -12 -13 -12 -12 -11 -12 -10 -11 -11 -10 -10 -10 -10 -10 -11
-24 -23 -22 -22 -21 -19 -18 -18 -17 -17 -17 -17 -17 -17 -17 -18 -16 -16 -16 -15 -14 -13 -13 -13 -13 -13 -12 -12 -12 -12 -12 -13 -13 -12 -12 -12 -11 -10 -10 -10 -10 -10 -10 -10 -11
-24 -24 -22 -21 -21 -19 -18 -18 -18 -17 -17 -18 -17 -17 -17 -17 -17 -17 -16 -15 -15 -14 -14 -13 -13 -13 -12 -12 -12 -12 -12 -13 -13 -13 -13 -11 -12 -9 -11 -9 -10 -10 -10 -11 -11
-24 -24 -21 -21 -20 -19 -19 -19 -18 -17 -18 -17 -17 -18 -17 -17 -16 -16 -16 -15 -15 -14 -14 -14 -13 -13 -13 -13 -13 -12 -12 -13 -14 -14 -11 -11 -12 -8 -10 -11 -10 -10 -11 -11 -11
-24 -23 -21 -21 -19 -19 -19 -19 -19 -18 -18 -18 -17 -18 -18 -17 -17 -17 -17 -16 -15 -15 -14 -13 -13 -12 -12 -12 -12 -12 -12 -12 -13 -13 -12 -12 -11 -9 -10 -12 -10 -10 -11 -11 -11
-23 -22 -21 -20 -20 -19 -19 -18 -18 -18 -18 -17 -18 -18 -18 -18 -17 -17 -17 -16 -16 -15 -14 -14 -14 -13 -13 -12 -12 -13 -13 -13 -14 -13 -13 -12 -12 -12 -12 -12 -12 -10 -10 -11 -11
-24 -21 -20 -20 -20 -19 -19 -19 -18 -18 -18 -18 -17 -16 -16 -17 -17 -17 -17 -16 -15 -15 -15 -15 -16 -15 -14 -14 -14 -13 -14 -15 -15 -14 -13 -13 -12 -11 -11 -11 -12 -11 -10 -11 -11
-23 -20 -20 -20 -19 -19 -19 -18 -18 -18 -18 -18 -17 -17 -17 -15 -16 -16 -16 -16 -16 -17 -17 -16 -16 -15 -15 -15 -14 -14 -14 -14 -13 -14 -13 -13 -11 -11 -12 -12 -11 -12 -12 -11 -12
-24 -21 -20 -20 -19 -19 -19 -19 -19 -18 -18 -18 -18 -17 -18 -17 -17 -17 -18 -17 -17 -18 -18 -18 -17 -16 -16 -15 -15 -15 -15 -15 -15 -13 -13 -13 -11 -12 -11 -11 -12 -12 -12 -12 -12
-23 -22 -20 -21 -20 -19 -19 -19 -19 -18 -17 -17 -17 -17 -18 -18 -18 -18 -18 -18 -18 -18 -17 -17 -17 -17 -17 -16 -15 -14 -15 -15 -15 -15 -14 -14 -11 -12 -13 -13 -13 -13 -13 -14 -13
-25 -24 -22 -21 -21 -20 -20 -19 -19 -19 -18 -18 -18 -19 -18 -18 -18 -18 -19 -19 -18 -18 -19 -19 -18 -17 -16 -16 -16 -15 -15 -15 -16 -15 -13 -13 -13 -13 -13 -13 -15 -14 -14 -14 -14
-26 -25 -22 -21 -21 -20 -20 -19 -19 -19 -19 -19 -18 -18 -18 -18 -18 -18 -18 -19 -19 -19 -19 -19 -18 -18 -17 -17 -17 -16 -16 -16 -16 -15 -15 -12 -13 -13 -13 -14 -14 -15 -15 -16 -15
-25 -26 -24 -22 -21 -21 -20 -20 -19 -18 -18 -18 -18 -18 -18 -18 -18 -17 -18 -18 -18 -18 -19 -18 -18 -18 -18 -18 -17 -17 -17 -16 -15 -14 -13 -13 -13 -13 -13 -15 -15 -15 -17 -16 -16
-26 -26 -24 -21 -21 -21 -20 -19 -19 -18 -18 -18 -19 -19 -18 -18 -19 -19 -19 -20 -20 -20 -20 -19 -18 -18 -18 -18 -19 -18 -16 -16 -16 -15 -14 -14 -13 -13 -14 -14 -15 -16 -17 -17 -17